カタログに戻る

CZ-6A DEB

運用中PO
NORAD 61087·DEBRIS·🇨🇳 China

打ち上げ Aug 6, 2024 から Taiyuan Satellite Launch Center

Loading…

次のパス (今後24時間)

TLE

最新Source: Space-Track

元期: Sep 14, 2026, 23:15 UTC

1 61087U 24140ND  26257.96930622  .00001421  00000-0  32143-3 0  9996
2 61087  88.9079 251.3722 0092795 320.6905  38.7591 14.53070355108762

AllMySatでCZ-6A DEBをリアルタイム追跡

Download on the App Store